Location: Les Salelles
(44.4192°N, 4.1044°E)
Time: 11:01:33
(UTC+00:00)

COSMOS 2455 - Pass Details

Date: 20 January 2021
Orbit: 901 x 908 km, 67.1° (Epoch: 01 March)

Event Time Altitude Azimuth Distance (km) Brightness Sun altitude
Rises 17:39:33 0° 202° (SSW) 3,516 6.5 -11.2°
Reaches altitude 10° 17:42:03 10° 201° (SSW) 2,580 5.8 -11.6°
Maximum altitude 17:48:01 72° 117° (ESE) 953 2.8 -12.7°
Drops below altitude 10° 17:54:01 10° 35° (NE) 2,600 4.8 -13.7°
Enters shadow 17:54:03 10° 35° (NE) 2,610 4.8 -13.7°
